Location: Fatehalanka
(16.3139°N, 80.8379°E)
Time: 08:12:20
(UTC+00:00)

Cosmos 2366 rocket - Pass Details

Date: 14 May 2026
Orbit: 955 x 995 km, 82.9° (Epoch: 6 June)

Event Time Altitude Azimuth Distance (km) Brightness Sun altitude
Rises 23:29:36 0° 344° (NNW) 3,695 7.1 -9.1°
Reaches altitude 10° 23:32:13 10° 338° (NNW) 2,749 6.4 -8.5°
Maximum altitude 23:38:08 43° 269° (W) 1,361 4.4 -7.2°
Drops below altitude 10° 23:44:03 10° 199° (SSW) 2,752 6.0 -5.9°
Sets 23:46:42 0° 193° (SSW) 3,698 6.7 -5.3°
